Date String (YYYY-MM-DD hh:mm:ss) UTC,Instrument flags,Ambient pressure (hPa),Sample flow (lpm),Bypass flow (lpm),Sample temperature (°C),Ambient temperature (°C),ASC tube jacket temperature (°C),LED temperature (°C),Box temperature (°C),Sample RH (%),Span deviation,Mass concentration (μg/m³),Mass concentration (μg/m³),Mass concentration (μg/m³)
DateTimeUTC,F1_M11,P_M11,Q1_M11,Q2_M11,T1_M11,T2_M11,T3_M11,T4_M11,T5_M11,U1_M11,ZSPAN_M11,X0_M11,X2_M11,X1_M11
2022-07-14 05:00:00,,0829.2,5.01,0.00,29.5,27.6,00.0,38.2,31.3,21.9,0000.0,0008.38,0004.51,0004.09
2022-07-14 05:01:00,,0829.3,4.99,0.00,29.5,27.8,00.0,38.2,31.3,21.8,0000.0,0008.92,0004.54,0004.10
2022-07-14 05:02:00,,0829.3,5.02,0.00,29.5,27.9,00.0,38.2,31.3,21.8,0000.0,0009.04,0004.55,0004.11
2022-07-14 05:03:00,,0829.3,4.99,0.00,29.5,28.1,00.0,38.2,31.4,21.8,0000.0,0008.94,0004.57,0004.10
2022-07-14 05:04:00,,0829.2,5.01,0.00,29.5,28.2,00.0,38.2,31.4,21.7,0000.0,0008.50,0004.56,0004.10
2022-07-14 05:05:00,,0829.3,5.00,0.00,29.5,28.3,00.0,38.3,31.5,21.7,0000.0,0008.76,0004.61,0004.10
2022-07-14 05:06:00,,0829.2,5.00,0.00,29.6,28.4,00.0,38.3,31.5,21.6,0000.0,0008.79,0004.66,0004.11
2022-07-14 05:07:00,,0829.2,5.00,0.00,29.6,28.5,00.0,38.3,31.5,21.5,0000.0,0008.63,0004.60,0004.10
2022-07-14 05:08:00,,0829.1,5.00,0.00,29.6,28.4,00.0,38.3,31.5,21.6,0000.0,0008.62,0004.60,0004.11
2022-07-14 05:09:00,,0829.0,4.99,0.00,29.6,27.7,00.0,38.2,31.5,21.5,0000.0,0008.67,0004.62,0004.12
2022-07-14 05:10:00,,0829.1,5.00,0.00,29.6,27.4,00.0,38.2,31.4,21.4,0000.0,0008.82,0004.67,0004.12
2022-07-14 05:11:00,,0829.1,5.00,0.00,29.5,27.4,00.0,38.2,31.3,21.5,0000.0,0008.81,0004.66,0004.12
2022-07-14 05:12:00,,0829.1,5.00,0.00,29.5,27.5,00.0,38.2,31.3,21.6,0000.0,0008.30,0004.64,0004.12
2022-07-14 05:13:00,,0829.0,4.98,0.00,29.5,27.6,00.0,38.2,31.3,21.6,0000.0,0007.98,0004.66,0004.12
2022-07-14 05:14:00,,0829.1,5.01,0.00,29.5,27.8,00.0,38.2,31.3,21.6,0000.0,0007.94,0004.65,0004.13
2022-07-14 05:15:00,,0829.1,4.99,0.00,29.5,27.9,00.0,38.2,31.3,21.6,0000.0,0008.08,0004.66,0004.13
2022-07-14 05:16:00,,0829.1,5.01,0.00,29.5,28.1,00.0,38.2,31.4,21.7,0000.0,0008.13,0004.66,0004.13
2022-07-14 05:17:00,,0829.1,5.00,0.00,29.5,28.2,00.0,38.2,31.4,21.6,0000.0,0008.08,0004.64,0004.14
2022-07-14 05:18:00,,0829.1,5.00,0.00,29.6,28.3,00.0,38.3,31.5,21.6,0000.0,0008.20,0004.65,0004.14
2022-07-14 05:19:00,,0829.2,5.01,0.00,29.6,28.4,00.0,38.3,31.5,21.7,0000.0,0008.42,0004.70,0004.15
2022-07-14 05:20:00,,0829.2,5.00,0.00,29.6,28.5,00.0,38.3,31.5,21.6,0000.0,0008.91,0004.73,0004.15
2022-07-14 05:21:00,,0829.2,4.99,0.00,29.6,28.2,00.0,38.3,31.5,21.7,0000.0,0008.91,0004.71,0004.15
2022-07-14 05:22:00,,0829.1,5.00,0.00,29.6,27.3,00.0,38.2,31.4,21.6,0000.0,0008.89,0004.70,0004.16
2022-07-14 05:23:00,,0829.1,5.01,0.00,29.5,26.8,00.0,38.2,31.2,21.5,0000.0,0009.18,0004.71,0004.16
2022-07-14 05:24:00,,0829.1,4.99,0.00,29.4,26.8,00.0,38.2,31.1,21.6,0000.0,0009.24,0004.69,0004.16
2022-07-14 05:25:00,,0829.1,5.02,0.00,29.4,26.9,00.0,38.1,31.0,21.6,0000.0,0009.20,0004.68,0004.15
2022-07-14 05:26:00,,0829.1,5.00,0.00,29.3,27.1,00.0,38.1,31.1,21.5,0000.0,0009.50,0004.67,0004.14
2022-07-14 05:27:00,,0829.1,5.00,0.00,29.3,27.2,00.0,38.1,31.1,21.5,0000.0,0009.87,0004.66,0004.13
2022-07-14 05:28:00,,0829.1,4.98,0.00,29.3,27.4,00.0,38.1,31.1,21.5,0000.0,0009.84,0004.66,0004.13
2022-07-14 05:29:00,,0829.1,5.01,0.00,29.3,27.6,00.0,38.1,31.1,21.4,0000.0,0009.79,0004.66,0004.12
2022-07-14 05:30:00,,0829.1,4.99,0.00,29.3,27.8,00.0,38.1,31.2,21.4,0000.0,0009.65,0004.62,0004.11
2022-07-14 05:31:00,,0829.2,5.01,0.00,29.4,27.9,00.0,38.1,31.2,21.4,0000.0,0009.09,0004.57,0004.09
2022-07-14 05:32:00,,0829.2,5.00,0.00,29.4,28.0,00.0,38.1,31.3,21.3,0000.0,0008.97,0004.54,0004.08
2022-07-14 05:33:00,,0829.2,5.00,0.00,29.4,28.2,00.0,38.2,31.3,21.3,0000.0,0008.95,0004.52,0004.06
2022-07-14 05:34:00,,0829.2,5.00,0.00,29.4,28.3,00.0,38.2,31.3,21.1,0000.0,0008.68,0004.49,0004.04
2022-07-14 05:35:00,,0829.2,4.99,0.00,29.5,28.4,00.0,38.2,31.4,21.0,0000.0,0008.37,0004.46,0004.03
2022-07-14 05:36:00,,0829.2,5.00,0.00,29.5,28.4,00.0,38.2,31.4,21.0,0000.0,0008.29,0004.43,0004.01
2022-07-14 05:37:00,,0829.2,5.00,0.00,29.5,28.5,00.0,38.2,31.5,20.8,0000.0,0008.12,0004.42,0004.01
2022-07-14 05:38:00,,0829.2,5.00,0.00,29.6,28.6,00.0,38.3,31.5,20.8,0000.0,0007.31,0004.42,0004.00
2022-07-14 05:39:00,,0829.2,5.00,0.00,29.6,28.4,00.0,38.2,31.5,20.8,0000.0,0007.04,0004.36,0003.99
2022-07-14 05:40:00,,0829.1,5.00,0.00,29.6,27.7,00.0,38.2,31.4,20.9,0000.0,0006.98,0004.36,0003.98
2022-07-14 05:41:00,,0829.1,4.99,0.00,29.5,27.5,00.0,38.2,31.4,20.8,0000.0,0006.86,0004.35,0003.97
2022-07-14 05:42:00,,0829.1,5.00,0.00,29.5,27.5,00.0,38.2,31.3,20.9,0000.0,0006.84,0004.34,0003.96
2022-07-14 05:43:00,,0829.2,5.00,0.00,29.4,27.5,00.0,38.2,31.2,21.0,0000.0,0006.67,0004.30,0003.95
2022-07-14 05:44:00,,0829.1,5.01,0.00,29.4,27.7,00.0,38.2,31.3,21.1,0000.0,0006.71,0004.30,0003.95
2022-07-14 05:45:00,,0829.2,4.99,0.00,29.4,27.8,00.0,38.2,31.3,21.1,0000.0,0007.16,0004.33,0003.94
2022-07-14 05:46:00,,0829.2,5.01,0.00,29.5,27.9,00.0,38.2,31.3,21.0,0000.0,0007.20,0004.34,0003.94
2022-07-14 05:47:00,,0829.1,4.99,0.00,29.5,28.1,00.0,38.2,31.3,20.9,0000.0,0007.65,0004.34,0003.94
2022-07-14 05:48:00,,0829.1,5.01,0.00,29.5,28.2,00.0,38.2,31.4,20.8,0000.0,0008.52,0004.36,0003.94
2022-07-14 05:49:00,,0829.0,5.00,0.00,29.5,28.3,00.0,38.2,31.4,20.7,0000.0,0008.79,0004.36,0003.94
2022-07-14 05:50:00,,0829.0,5.00,0.00,29.5,28.4,00.0,38.2,31.5,20.7,0000.0,0008.87,0004.38,0003.93
2022-07-14 05:51:00,,0829.1,5.00,0.00,29.6,28.5,00.0,38.3,31.5,20.6,0000.0,0008.83,0004.35,0003.93
2022-07-14 05:52:00,,0829.1,5.01,0.00,29.6,28.5,00.0,38.3,31.5,20.3,0000.0,0008.80,0004.33,0003.92
2022-07-14 05:53:00,,0829.1,4.99,0.00,29.6,28.3,00.0,38.3,31.5,20.3,0000.0,0009.74,0004.34,0003.92
2022-07-14 05:54:00,,0829.0,5.00,0.00,29.6,27.6,00.0,38.2,31.4,20.1,0000.0,0010.06,0004.37,0003.92
2022-07-14 05:55:00,,0829.1,5.00,0.00,29.6,27.4,00.0,38.2,31.4,20.1,0000.0,0009.96,0004.34,0003.90
2022-07-14 05:56:00,,0829.1,5.01,0.00,29.5,27.4,00.0,38.2,31.3,20.1,0000.0,0009.75,0004.30,0003.89
2022-07-14 05:57:00,,0829.0,4.98,0.00,29.5,27.5,00.0,38.2,31.3,20.1,0000.0,0009.93,0004.29,0003.88
2022-07-14 05:58:00,,0829.1,5.00,0.00,29.5,27.6,00.0,38.2,31.3,19.9,0000.0,0009.83,0004.26,0003.86
2022-07-14 05:59:00,,0829.1,4.99,0.00,29.5,27.8,00.0,38.2,31.3,19.9,0000.0,0009.00,0004.23,0003.84
